Year,Month,Day,Hour,Minute,Value (Times are PST for temperature in C)
2017,11,15,00,00,8.20
2017,11,15,00,01,8.20
2017,11,15,00,02,8.20
2017,11,15,00,03,8.20
2017,11,15,00,04,8.20
2017,11,15,00,05,8.20
2017,11,15,00,06,8.20
2017,11,15,00,07,8.10
2017,11,15,00,08,8.10
2017,11,15,00,09,8.10
2017,11,15,00,10,8.10
2017,11,15,00,11,8.10
2017,11,15,00,12,8.10
2017,11,15,00,13,8.10
2017,11,15,00,14,8.10
2017,11,15,00,15,8.10
2017,11,15,00,16,8.10
2017,11,15,00,17,8.10
2017,11,15,00,18,8.10
2017,11,15,00,19,8.00
2017,11,15,00,20,8.00
2017,11,15,00,21,8.00
2017,11,15,00,22,8.00
2017,11,15,00,23,8.00
2017,11,15,00,24,8.00
2017,11,15,00,25,8.00
2017,11,15,00,26,8.00
2017,11,15,00,27,8.00
2017,11,15,00,28,7.90
2017,11,15,00,29,7.80
2017,11,15,00,30,7.80
2017,11,15,00,31,7.80
2017,11,15,00,32,7.80
2017,11,15,00,33,7.80
2017,11,15,00,34,7.80
2017,11,15,00,35,7.80
2017,11,15,00,36,7.80
2017,11,15,00,37,7.70
2017,11,15,00,38,7.70
2017,11,15,00,39,7.70
2017,11,15,00,40,7.70
2017,11,15,00,41,7.70
2017,11,15,00,42,7.70
2017,11,15,00,43,7.70
2017,11,15,00,44,7.70
2017,11,15,00,45,7.70
2017,11,15,00,46,7.70
2017,11,15,00,47,7.70
2017,11,15,00,48,7.70
2017,11,15,00,49,7.70
2017,11,15,00,50,7.70
2017,11,15,00,51,7.70
2017,11,15,00,52,7.70
2017,11,15,00,53,7.70
2017,11,15,00,54,7.60
2017,11,15,00,55,7.60
2017,11,15,00,56,7.60
2017,11,15,00,57,7.60
2017,11,15,00,58,7.60
2017,11,15,00,59,7.60
2017,11,15,01,00,7.60
2017,11,15,01,01,7.60
2017,11,15,01,02,7.60
2017,11,15,01,03,7.60
2017,11,15,01,04,7.60
2017,11,15,01,05,7.60
2017,11,15,01,06,7.60
2017,11,15,01,07,7.60
2017,11,15,01,08,7.60
2017,11,15,01,09,7.60
2017,11,15,01,10,7.60
2017,11,15,01,11,7.60
2017,11,15,01,12,7.60
2017,11,15,01,13,7.60
2017,11,15,01,14,7.60
2017,11,15,01,15,7.60
2017,11,15,01,16,7.60
2017,11,15,01,17,7.60
2017,11,15,01,34,7.30
2017,11,15,01,35,7.30
2017,11,15,01,36,7.30
2017,11,15,01,37,7.30
2017,11,15,01,38,7.30
2017,11,15,01,39,7.30
2017,11,15,01,40,7.30
2017,11,15,01,41,7.30
2017,11,15,01,42,7.30
2017,11,15,01,43,7.30
2017,11,15,01,44,7.30
2017,11,15,01,45,7.30
2017,11,15,01,46,7.30
2017,11,15,01,47,7.30
2017,11,15,01,48,7.30
2017,11,15,01,49,7.30
2017,11,15,09,54,7.80
2017,11,15,09,55,7.80
2017,11,15,09,56,7.80
2017,11,15,09,57,7.80
2017,11,15,09,58,7.90
2017,11,15,09,59,7.90
2017,11,15,10,00,8.00
2017,11,15,10,01,8.00
2017,11,15,10,02,8.10
2017,11,15,10,03,8.10
2017,11,15,10,04,8.20
2017,11,15,10,05,8.20
2017,11,15,10,06,8.20
2017,11,15,10,07,8.30
2017,11,15,10,08,8.30
2017,11,15,10,09,8.30
2017,11,15,10,10,8.30
2017,11,15,10,11,8.30
2017,11,15,10,12,8.30
2017,11,15,10,13,8.30
2017,11,15,10,14,8.30
2017,11,15,10,15,8.30
2017,11,15,10,16,8.30
2017,11,15,10,17,8.30
2017,11,15,10,18,8.30
2017,11,15,10,19,8.30
2017,11,15,10,20,8.30
2017,11,15,10,21,8.30
2017,11,15,10,22,8.40
2017,11,15,10,23,8.40
2017,11,15,10,24,8.40
2017,11,15,10,25,8.50
2017,11,15,10,26,8.50
2017,11,15,10,27,8.50
2017,11,15,10,28,8.60
2017,11,15,10,29,8.60
2017,11,15,10,30,8.60
2017,11,15,10,31,8.60
2017,11,15,10,32,8.60
2017,11,15,10,33,8.60
2017,11,15,10,34,8.60
2017,11,15,10,35,8.60
2017,11,15,10,36,8.50
2017,11,15,10,37,8.50
2017,11,15,10,38,8.40
2017,11,15,10,39,8.40
2017,11,15,10,40,8.30
2017,11,15,10,41,8.30
2017,11,15,10,42,8.30
2017,11,15,10,43,8.30
2017,11,15,10,44,8.30
2017,11,15,10,45,8.30
2017,11,15,10,46,8.30
2017,11,15,10,47,8.30
2017,11,15,10,48,8.30
2017,11,15,10,49,8.30
2017,11,15,10,50,8.30
2017,11,15,10,51,8.30
2017,11,15,10,52,8.30
2017,11,15,10,53,8.30
2017,11,15,10,54,8.30
2017,11,15,10,55,8.30
2017,11,15,10,56,8.30
2017,11,15,10,57,8.30
2017,11,15,10,58,8.40
2017,11,15,10,59,8.40
2017,11,15,11,00,8.40
2017,11,15,11,01,8.40
2017,11,15,11,02,8.40
2017,11,15,11,03,8.40
2017,11,15,11,04,8.40
2017,11,15,11,05,8.40
2017,11,15,11,06,8.40
2017,11,15,11,07,8.40
2017,11,15,11,08,8.40
2017,11,15,11,09,8.30
2017,11,15,11,10,8.30
2017,11,15,11,11,8.20
2017,11,15,11,12,8.20
2017,11,15,11,13,8.20
2017,11,15,11,14,8.30
2017,11,15,11,15,8.30
2017,11,15,11,16,8.30
2017,11,15,11,17,8.40
2017,11,15,11,18,8.40
2017,11,15,11,19,8.30
2017,11,15,11,20,8.30
2017,11,15,11,21,8.30
2017,11,15,11,22,8.30
2017,11,15,11,23,8.30
2017,11,15,11,24,8.30
2017,11,15,11,25,8.30
2017,11,15,11,26,8.30
2017,11,15,11,27,8.30
2017,11,15,11,28,8.30
2017,11,15,11,29,8.30
2017,11,15,11,30,8.30
2017,11,15,11,31,8.30
2017,11,15,11,32,8.30
2017,11,15,11,33,8.30
2017,11,15,11,34,8.30
2017,11,15,11,35,8.30
2017,11,15,11,36,8.30
2017,11,15,11,37,8.30
2017,11,15,11,38,8.30
2017,11,15,11,39,8.30
2017,11,15,11,40,8.30
2017,11,15,11,41,8.30
2017,11,15,11,42,8.30
2017,11,15,11,43,8.30
2017,11,15,11,44,8.30
2017,11,15,11,45,8.30
2017,11,15,11,46,8.30
2017,11,15,11,47,8.30
2017,11,15,11,48,8.30
2017,11,15,11,49,8.30
2017,11,15,11,50,8.30
2017,11,15,11,51,8.30
2017,11,15,11,52,8.20
2017,11,15,11,53,8.20
2017,11,15,11,54,8.20
2017,11,15,11,55,8.20
2017,11,15,11,56,8.20
2017,11,15,11,57,8.20
2017,11,15,11,58,8.20
2017,11,15,11,59,8.20
2017,11,15,12,00,8.20
2017,11,15,12,01,8.20
2017,11,15,12,02,8.10
2017,11,15,12,03,8.10
2017,11,15,12,04,8.10
2017,11,15,12,05,8.10
2017,11,15,12,06,8.20
2017,11,15,12,07,8.20
2017,11,15,12,08,8.20
2017,11,15,12,09,8.20
2017,11,15,12,10,8.30
2017,11,15,12,11,8.30
2017,11,15,12,12,8.40
2017,11,15,12,13,8.40
2017,11,15,12,14,8.40
2017,11,15,12,15,8.40
2017,11,15,12,16,8.50
2017,11,15,12,17,8.50
2017,11,15,12,18,8.50
2017,11,15,12,19,8.50
2017,11,15,12,20,8.50
2017,11,15,12,21,8.50
2017,11,15,12,22,8.50
2017,11,15,12,23,8.60
2017,11,15,12,24,8.60
2017,11,15,12,25,8.60
2017,11,15,12,26,8.70
2017,11,15,12,27,8.70
2017,11,15,12,28,8.70
2017,11,15,12,29,8.80
2017,11,15,12,30,8.80
2017,11,15,12,31,8.80
2017,11,15,12,32,8.80
2017,11,15,12,33,8.80
2017,11,15,12,34,8.90
2017,11,15,12,35,8.90
2017,11,15,12,36,9.00
2017,11,15,12,37,9.00
2017,11,15,12,38,9.10
2017,11,15,12,39,9.10
2017,11,15,12,40,9.10
2017,11,15,12,41,9.20
2017,11,15,12,42,9.20
2017,11,15,12,43,9.30
2017,11,15,12,44,9.30
2017,11,15,12,45,9.30
2017,11,15,12,46,9.30
2017,11,15,12,47,9.30
2017,11,15,12,48,9.40
2017,11,15,12,49,9.40
2017,11,15,12,50,9.40
2017,11,15,12,51,9.40
2017,11,15,12,52,9.40
2017,11,15,12,53,9.40
2017,11,15,12,54,9.50
2017,11,15,12,55,9.50
2017,11,15,12,56,9.60
2017,11,15,12,57,9.60
2017,11,15,12,58,9.60
2017,11,15,12,59,9.70
2017,11,15,13,00,9.70
2017,11,15,13,01,9.70
2017,11,15,13,02,9.70
2017,11,15,13,03,9.80
2017,11,15,13,04,9.80
2017,11,15,13,05,9.80
2017,11,15,13,06,9.80
2017,11,15,13,07,9.80
2017,11,15,13,08,9.80
2017,11,15,13,09,9.80
2017,11,15,13,10,9.80
2017,11,15,13,11,9.80
2017,11,15,13,12,9.80
2017,11,15,13,13,9.70
2017,11,15,13,14,9.70
2017,11,15,13,15,9.70
2017,11,15,13,16,9.70
2017,11,15,13,17,9.70
2017,11,15,13,18,9.70
2017,11,15,13,19,9.70
2017,11,15,13,20,9.70
2017,11,15,13,21,9.70
2017,11,15,13,22,9.70
2017,11,15,13,23,9.70
2017,11,15,13,24,9.70
2017,11,15,13,25,9.70
2017,11,15,13,26,9.60
2017,11,15,13,27,9.60
2017,11,15,13,28,9.50
2017,11,15,13,29,9.50
2017,11,15,13,30,9.40
2017,11,15,13,31,9.40
2017,11,15,13,32,9.40
2017,11,15,13,33,9.30
2017,11,15,13,34,9.30
2017,11,15,13,35,9.20
2017,11,15,13,36,9.20
2017,11,15,13,37,9.20
2017,11,15,13,38,9.20
2017,11,15,13,39,9.20
2017,11,15,13,40,9.20
2017,11,15,13,41,9.20
2017,11,15,13,42,9.20
2017,11,15,13,43,9.20
2017,11,15,13,44,9.20
2017,11,15,13,45,9.20
2017,11,15,13,46,9.30
2017,11,15,13,47,9.30
2017,11,15,13,48,9.30
2017,11,15,13,49,9.30
2017,11,15,13,50,9.30
2017,11,15,13,51,9.30
2017,11,15,13,52,9.30
2017,11,15,13,53,9.40
2017,11,15,13,54,9.40
2017,11,15,13,55,9.40
2017,11,15,13,56,9.40
2017,11,15,13,57,9.40
2017,11,15,13,58,9.40
2017,11,15,13,59,9.30
2017,11,15,14,00,9.30
2017,11,15,14,01,9.30
2017,11,15,14,02,9.30
2017,11,15,14,03,9.30
2017,11,15,14,04,9.20
2017,11,15,14,05,9.20
2017,11,15,14,06,9.20
2017,11,15,14,07,9.20
2017,11,15,14,08,9.20
2017,11,15,14,09,9.30
2017,11,15,14,10,9.30
2017,11,15,14,11,9.30
2017,11,15,14,12,9.30
2017,11,15,14,13,9.40
2017,11,15,14,14,9.40
2017,11,15,14,15,9.50
2017,11,15,14,16,9.60
2017,11,15,14,17,9.60
2017,11,15,14,18,9.60
2017,11,15,14,19,9.70
2017,11,15,14,20,9.70
2017,11,15,14,21,9.90
2017,11,15,14,22,9.90
2017,11,15,14,23,9.90
2017,11,15,14,24,10.00
2017,11,15,14,25,10.00
2017,11,15,14,26,10.00
2017,11,15,14,27,10.10
2017,11,15,14,28,10.10
2017,11,15,14,29,10.10
2017,11,15,14,30,10.00
2017,11,15,14,31,10.00
2017,11,15,14,32,10.00
2017,11,15,14,33,10.00
2017,11,15,14,34,10.00
2017,11,15,14,35,9.90
2017,11,15,14,36,9.90
2017,11,15,14,37,9.80
2017,11,15,14,38,9.80
2017,11,15,14,39,9.80
2017,11,15,14,40,9.80
2017,11,15,14,41,9.80
2017,11,15,14,42,9.80
2017,11,15,14,43,9.80
2017,11,15,14,44,9.80
2017,11,15,14,45,9.70
2017,11,15,14,46,9.70
2017,11,15,14,47,9.60
2017,11,15,14,48,9.60
2017,11,15,14,49,9.50
2017,11,15,14,50,9.40
2017,11,15,14,51,9.30
2017,11,15,14,52,9.20
2017,11,15,14,53,9.20
2017,11,15,14,54,9.10
2017,11,15,14,55,9.00
2017,11,15,14,56,8.90
2017,11,15,14,57,8.90
2017,11,15,14,58,8.90
2017,11,15,14,59,8.70
2017,11,15,15,00,8.70
2017,11,15,15,01,8.60
2017,11,15,15,02,8.60
2017,11,15,15,03,8.60
2017,11,15,15,04,8.40
2017,11,15,15,05,8.40
2017,11,15,15,06,8.40
2017,11,15,15,07,8.40
2017,11,15,15,08,8.30
2017,11,15,15,09,8.30
2017,11,15,15,10,8.30
2017,11,15,15,11,8.30
2017,11,15,15,12,8.30
2017,11,15,15,13,8.30
2017,11,15,15,14,8.30
2017,11,15,15,15,8.30
2017,11,15,15,16,8.30
2017,11,15,15,17,8.30
2017,11,15,15,18,8.30
2017,11,15,15,19,8.30
2017,11,15,15,20,8.30
2017,11,15,15,21,8.30
2017,11,15,15,22,8.30
2017,11,15,15,23,8.30
2017,11,15,16,31,7.40
2017,11,15,16,32,7.40
2017,11,15,16,33,7.40
2017,11,15,16,34,7.40
2017,11,15,16,35,7.40
2017,11,15,16,36,7.30
2017,11,15,16,37,7.30
2017,11,15,16,38,7.30
2017,11,15,16,39,7.30
2017,11,15,16,40,7.30
2017,11,15,16,41,7.30
2017,11,15,16,42,7.30
2017,11,15,16,43,7.30
2017,11,15,16,44,7.20
2017,11,15,16,45,7.20
2017,11,15,16,46,7.20
2017,11,15,16,47,7.20
2017,11,15,16,48,7.20
2017,11,15,16,49,7.20
2017,11,15,16,50,7.10
2017,11,15,16,51,7.10
2017,11,15,16,52,7.10
2017,11,15,16,53,7.10
2017,11,15,16,54,7.10
2017,11,15,16,55,7.00
2017,11,15,16,56,7.00
2017,11,15,16,57,7.00
2017,11,15,16,58,7.00
2017,11,15,16,59,7.00
2017,11,15,17,00,7.00
2017,11,15,17,01,7.00
2017,11,15,17,02,7.00
2017,11,15,17,03,7.00
2017,11,15,17,04,6.90
2017,11,15,17,05,6.90
2017,11,15,17,06,6.90
2017,11,15,17,07,6.90
2017,11,15,17,08,6.90
2017,11,15,17,09,6.90
2017,11,15,17,10,6.90
2017,11,15,17,11,6.90
2017,11,15,17,12,6.90
2017,11,15,17,13,6.90
2017,11,15,17,14,6.90
2017,11,15,17,15,6.90
2017,11,15,17,16,6.90
2017,11,15,17,17,6.90
2017,11,15,17,18,6.90
2017,11,15,17,19,6.90
2017,11,15,17,20,6.80
2017,11,15,17,21,6.80
2017,11,15,17,22,6.80
2017,11,15,17,23,6.80
2017,11,15,17,24,6.80
2017,11,15,17,25,6.80
2017,11,15,17,26,6.80
2017,11,15,17,27,6.80
2017,11,15,17,28,6.80
2017,11,15,17,29,6.80
2017,11,15,17,30,6.80
2017,11,15,17,31,6.80
2017,11,15,17,32,6.80
2017,11,15,17,33,6.80
2017,11,15,17,34,6.80
2017,11,15,17,35,6.80
2017,11,15,17,36,6.70
2017,11,15,17,37,6.70
2017,11,15,17,38,6.70
2017,11,15,17,39,6.70
2017,11,15,17,40,6.60
2017,11,15,17,41,6.60
2017,11,15,17,42,6.60
2017,11,15,17,43,6.60
2017,11,15,17,44,6.60
2017,11,15,17,45,6.60
2017,11,15,17,46,6.60
2017,11,15,17,47,6.60
2017,11,15,17,48,6.50
2017,11,15,17,49,6.50
2017,11,15,17,50,6.50
2017,11,15,17,51,6.50
2017,11,15,17,52,6.50
2017,11,15,17,53,6.40
2017,11,15,17,54,6.40
2017,11,15,17,55,6.40
2017,11,15,17,56,6.40
2017,11,15,17,57,6.40
2017,11,15,17,58,6.40
2017,11,15,17,59,6.40
2017,11,15,18,00,6.30
2017,11,15,18,01,6.30
2017,11,15,18,02,6.30
2017,11,15,18,03,6.30
2017,11,15,18,04,6.30
2017,11,15,18,05,6.30
2017,11,15,18,06,6.30
2017,11,15,18,07,6.30
2017,11,15,18,08,6.20
2017,11,15,18,09,6.20
2017,11,15,18,10,6.20
2017,11,15,18,11,6.20
2017,11,15,18,12,6.20
2017,11,15,18,13,6.20
2017,11,15,18,14,6.10
2017,11,15,18,15,6.10
2017,11,15,18,16,6.10
2017,11,15,18,17,6.10
2017,11,15,18,18,6.10
2017,11,15,18,19,6.10
2017,11,15,18,20,6.10
2017,11,15,18,21,6.00
2017,11,15,18,22,6.00
2017,11,15,18,23,6.00
2017,11,15,18,24,5.90
2017,11,15,18,25,5.90
2017,11,15,18,26,5.90
2017,11,15,18,27,5.90
2017,11,15,18,28,5.90
2017,11,15,18,29,5.90
2017,11,15,18,30,5.90
2017,11,15,18,31,5.90
2017,11,15,18,32,5.90
2017,11,15,18,33,5.90
2017,11,15,18,34,5.90
2017,11,15,18,35,5.80
2017,11,15,18,36,5.80
2017,11,15,18,37,5.80
2017,11,15,18,38,5.80
2017,11,15,18,39,5.80
2017,11,15,18,40,5.80
2017,11,15,18,41,5.80
2017,11,15,18,42,5.80
2017,11,15,18,43,5.80
2017,11,15,18,44,5.80
2017,11,15,18,45,5.80
2017,11,15,18,46,5.80
2017,11,15,18,47,5.80
2017,11,15,18,48,5.80
2017,11,15,18,49,5.80
2017,11,15,18,50,5.80
2017,11,15,18,51,5.80
2017,11,15,18,52,5.70
2017,11,15,18,53,5.70
2017,11,15,18,54,5.70
2017,11,15,18,55,5.70
2017,11,15,18,56,5.70
2017,11,15,18,57,5.70
2017,11,15,18,58,5.70
2017,11,15,18,59,5.70
2017,11,15,19,00,5.70
2017,11,15,19,01,5.70
2017,11,15,19,02,5.70
2017,11,15,19,03,5.60
2017,11,15,19,04,5.60
2017,11,15,19,05,5.60
2017,11,15,19,06,5.60
2017,11,15,19,07,5.60
2017,11,15,19,08,5.60
2017,11,15,19,09,5.60
2017,11,15,19,10,5.50
2017,11,15,19,11,5.50
2017,11,15,19,12,5.50
2017,11,15,19,13,5.40
2017,11,15,19,14,5.40
2017,11,15,19,15,5.40
2017,11,15,19,16,5.40
2017,11,15,19,17,5.40
2017,11,15,19,18,5.40
2017,11,15,19,19,5.40
2017,11,15,19,20,5.40
2017,11,15,19,21,5.30
2017,11,15,19,22,5.30
2017,11,15,19,23,5.30
2017,11,15,19,24,5.30
2017,11,15,19,25,5.30
2017,11,15,19,26,5.30
2017,11,15,19,27,5.30
2017,11,15,19,28,5.30
2017,11,15,19,29,5.20
2017,11,15,19,30,5.20
2017,11,15,19,31,5.20
2017,11,15,19,32,5.20
2017,11,15,19,33,5.20
2017,11,15,19,34,5.20
2017,11,15,19,35,5.10
2017,11,15,19,36,5.10
2017,11,15,19,37,5.10
2017,11,15,19,38,5.10
2017,11,15,19,39,5.10
2017,11,15,19,40,5.10
2017,11,15,19,41,5.10
2017,11,15,19,42,5.10
2017,11,15,19,43,5.10
2017,11,15,19,44,5.10
2017,11,15,19,45,5.10
2017,11,15,19,46,5.10
2017,11,15,19,47,5.00
2017,11,15,19,48,5.00
2017,11,15,19,49,5.00
2017,11,15,19,50,5.10
2017,11,15,19,51,5.10
2017,11,15,19,52,5.00
2017,11,15,19,53,5.10
2017,11,15,19,54,5.10
2017,11,15,19,55,5.10
2017,11,15,19,56,5.10
2017,11,15,19,57,5.10
2017,11,15,19,58,5.10
2017,11,15,19,59,5.10
2017,11,15,20,00,5.10
2017,11,15,20,01,5.10
2017,11,15,20,02,5.10
2017,11,15,20,03,5.10
2017,11,15,20,04,5.10
2017,11,15,20,05,5.10
2017,11,15,20,06,5.10
2017,11,15,20,07,5.10
2017,11,15,20,08,5.10
2017,11,15,20,09,5.10
2017,11,15,20,10,5.10
2017,11,15,20,11,5.10
2017,11,15,20,12,5.10
2017,11,15,20,13,5.10
2017,11,15,20,14,5.10
2017,11,15,20,15,5.10
2017,11,15,20,16,5.10
2017,11,15,20,17,5.10
2017,11,15,20,18,5.10
2017,11,15,20,19,5.10
2017,11,15,20,20,5.10
2017,11,15,20,21,5.10
2017,11,15,20,22,5.10
2017,11,15,20,23,5.10
2017,11,15,20,24,5.10
2017,11,15,20,25,5.10
2017,11,15,20,26,5.10
2017,11,15,20,27,5.10
2017,11,15,20,28,5.10
2017,11,15,20,29,5.10
2017,11,15,20,30,5.10
2017,11,15,20,31,5.10
2017,11,15,20,32,5.10
2017,11,15,20,33,5.10
2017,11,15,20,34,5.10
2017,11,15,20,35,5.10
2017,11,15,20,36,5.10
2017,11,15,20,37,5.10
2017,11,15,20,38,5.10
2017,11,15,20,39,5.10
2017,11,15,20,40,5.10
2017,11,15,20,41,5.10
2017,11,15,20,42,5.10
2017,11,15,20,43,5.10
2017,11,15,20,44,5.10
2017,11,15,20,45,5.10
2017,11,15,20,46,5.10
2017,11,15,20,47,5.10
2017,11,15,20,48,5.10
2017,11,15,20,49,5.10
2017,11,15,20,50,5.10
2017,11,15,20,51,5.10
2017,11,15,20,52,5.10
2017,11,15,20,53,5.10
2017,11,15,20,54,5.10
2017,11,15,20,55,5.10
2017,11,15,20,56,5.10
2017,11,15,20,57,5.20
2017,11,15,20,58,5.10
2017,11,15,20,59,5.10
2017,11,15,21,00,5.20
2017,11,15,21,01,5.20
2017,11,15,21,02,5.20
2017,11,15,21,03,5.20
2017,11,15,21,04,5.20
2017,11,15,21,05,5.20
2017,11,15,21,06,5.20
2017,11,15,21,07,5.20
2017,11,15,21,08,5.20
2017,11,15,21,09,5.20
2017,11,15,21,10,5.20
2017,11,15,21,11,5.20
2017,11,15,21,12,5.20
2017,11,15,21,13,5.20
2017,11,15,21,14,5.20
2017,11,15,21,15,5.20
2017,11,15,21,16,5.20
2017,11,15,21,17,5.20
2017,11,15,21,18,5.20
2017,11,15,21,19,5.20
2017,11,15,21,20,5.20
2017,11,15,21,21,5.20
2017,11,15,21,22,5.20
2017,11,15,21,23,5.20
2017,11,15,21,24,5.20
2017,11,15,21,25,5.20
2017,11,15,21,26,5.20
2017,11,15,21,27,5.20
2017,11,15,21,28,5.20
2017,11,15,21,29,5.20
2017,11,15,21,30,5.20
2017,11,15,21,31,5.30
2017,11,15,21,32,5.30
2017,11,15,21,33,5.30
2017,11,15,21,34,5.30
2017,11,15,21,35,5.30
2017,11,15,21,36,5.30
2017,11,15,21,37,5.30
2017,11,15,21,38,5.30
2017,11,15,21,39,5.30
2017,11,15,21,40,5.30
2017,11,15,21,41,5.30
2017,11,15,21,42,5.30
2017,11,15,21,43,5.30
2017,11,15,21,44,5.30
2017,11,15,21,45,5.30
2017,11,15,21,46,5.30
2017,11,15,21,47,5.30
2017,11,15,21,48,5.40
2017,11,15,21,49,5.40
2017,11,15,21,50,5.40
2017,11,15,21,51,5.40
2017,11,15,21,52,5.40
2017,11,15,21,53,5.40
2017,11,15,21,54,5.40
2017,11,15,21,55,5.40
2017,11,15,21,56,5.40
2017,11,15,21,57,5.40
2017,11,15,21,58,5.40
2017,11,15,21,59,5.40
2017,11,15,22,00,5.40
2017,11,15,22,01,5.40
2017,11,15,22,02,5.40
2017,11,15,22,03,5.40
2017,11,15,22,04,5.40
2017,11,15,22,05,5.40
2017,11,15,22,06,5.40
2017,11,15,22,07,5.40
2017,11,15,22,08,5.40
2017,11,15,22,09,5.40
2017,11,15,22,10,5.40
2017,11,15,22,11,5.40
2017,11,15,22,12,5.40
2017,11,15,22,13,5.40
2017,11,15,22,14,5.40
2017,11,15,22,15,5.40
2017,11,15,22,16,5.40
2017,11,15,22,17,5.40
2017,11,15,22,18,5.40
2017,11,15,22,19,5.40
2017,11,15,22,20,5.40
2017,11,15,22,21,5.40
2017,11,15,22,22,5.40
2017,11,15,22,23,5.40
2017,11,15,22,24,5.50
2017,11,15,22,25,5.50
2017,11,15,22,26,5.50
2017,11,15,22,27,5.50
2017,11,15,22,28,5.50
2017,11,15,22,29,5.50
2017,11,15,22,30,5.50
2017,11,15,22,31,5.50
2017,11,15,22,32,5.60
2017,11,15,22,33,5.60
2017,11,15,22,34,5.60
2017,11,15,22,35,5.60
2017,11,15,22,36,5.60
2017,11,15,22,37,5.60
2017,11,15,22,38,5.60
2017,11,15,22,39,5.60
2017,11,15,22,40,5.60
2017,11,15,22,41,5.60
2017,11,15,22,42,5.60
2017,11,15,22,43,5.60
2017,11,15,22,44,5.60
2017,11,15,22,45,5.60
2017,11,15,22,46,5.60
2017,11,15,22,47,5.60
2017,11,15,22,48,5.70
2017,11,15,22,49,5.70
2017,11,15,22,50,5.70
2017,11,15,22,51,5.60
2017,11,15,22,52,5.70
2017,11,15,22,53,5.70
2017,11,15,22,54,5.70
2017,11,15,22,55,5.60
2017,11,15,22,56,5.60
2017,11,15,22,57,5.60
2017,11,15,22,58,5.60
2017,11,15,22,59,5.60
2017,11,15,23,00,5.60
2017,11,15,23,01,5.60
2017,11,15,23,02,5.60
2017,11,15,23,03,5.60
2017,11,15,23,04,5.60
2017,11,15,23,05,5.60
2017,11,15,23,06,5.60
2017,11,15,23,07,5.60
2017,11,15,23,08,5.60
2017,11,15,23,09,5.60
2017,11,15,23,10,5.60
2017,11,15,23,11,5.60
2017,11,15,23,12,5.60
2017,11,15,23,13,5.60
2017,11,15,23,14,5.60
2017,11,15,23,15,5.60
2017,11,15,23,16,5.60
2017,11,15,23,17,5.60
2017,11,15,23,18,5.60
2017,11,15,23,19,5.60
2017,11,15,23,20,5.60
2017,11,15,23,21,5.60
2017,11,15,23,22,5.60
2017,11,15,23,23,5.60
2017,11,15,23,24,5.60
2017,11,15,23,25,5.60
2017,11,15,23,26,5.60
2017,11,15,23,27,5.60
2017,11,15,23,28,5.60
2017,11,15,23,29,5.60
2017,11,15,23,30,5.60
2017,11,15,23,31,5.60
2017,11,15,23,32,5.60
2017,11,15,23,33,5.60
2017,11,15,23,34,5.60
2017,11,15,23,35,5.60
2017,11,15,23,36,5.60
2017,11,15,23,37,5.60
2017,11,15,23,38,5.60
2017,11,15,23,39,5.60
2017,11,15,23,40,5.60
2017,11,15,23,41,5.60
2017,11,15,23,42,5.60
2017,11,15,23,43,5.60
2017,11,15,23,44,5.60
2017,11,15,23,45,5.60
2017,11,15,23,46,5.60
2017,11,15,23,47,5.60
2017,11,15,23,48,5.60
2017,11,15,23,49,5.60
2017,11,15,23,50,5.60
2017,11,15,23,51,5.60
2017,11,15,23,52,5.60
2017,11,15,23,53,5.60
2017,11,15,23,54,5.60
2017,11,15,23,55,5.50
2017,11,15,23,56,5.50
2017,11,15,23,57,5.50
2017,11,15,23,58,5.50
2017,11,15,23,59,5.50
